Location: Caltech
(34.1382°N, 118.1253°W)
Time: 11:27:10
(UTC-07:00)

SO-50 - Visible Passes

Search period start: 28 July 2014 00:00
Search period end: 07 August 2014 00:00
Orbit: 612 x 686 km, 64.6° (Epoch: 27 July)

Date Brightness Start Highest point End Pass type
(mag) Time Alt. Az. Time Alt. Az. Time Alt. Az.
28 Jul ? 21:15:41 10° N 21:19:56 31° NE 21:21:55 23° E visible
28 Jul ? 22:56:25 10° NW 22:59:40 25° W 22:59:40 25° W visible
29 Jul ? 21:42:06 10° NNW 21:46:54 82° ENE 21:48:13 48° SE visible
30 Jul ? 20:29:10 10° N 20:32:59 23° NE 20:36:49 10° ESE visible
30 Jul ? 22:09:14 10° NW 22:13:37 36° WSW 22:14:36 33° SW visible
31 Jul ? 20:55:19 10° NNW 21:00:02 58° ENE 21:03:17 20° SE visible
31 Jul ? 22:37:51 10° W 22:40:07 13° WSW 22:41:03 13° WSW visible
01 Aug ? 21:22:11 10° NW 21:26:50 52° WSW 21:29:48 21° S visible
02 Aug ? 20:08:37 10° NNW 20:13:09 41° ENE 20:17:42 10° SE visible
02 Aug ? 21:50:03 10° WNW 21:53:24 19° WSW 21:56:25 11° SSW visible
03 Aug ? 20:35:14 10° NNW 20:40:01 75° WSW 20:44:50 10° SSE visible
04 Aug ? 21:02:39 10° NW 21:06:40 27° WSW 21:10:42 10° SSW visible
06 Aug ? 20:15:28 10° NW 20:19:54 38° WSW 20:24:22 10° S visible
